Overview Statistics Trail Chart Weather Telemetry Raw packets
 

This is the latest recevied weather packets stored in our database for station/object KQ7A. If no packets are shown the sender has not sent any weather packets the latest 10 day(s).

<< 48 49 50 51 52 53 54 >>
Time Temp. Humidity Pressure Rain* Wind** Luminosity Snow
1788352137 7.78° C 46% 1016.8 hPa 0 mm - 0 W/m² -
1788351834 9.44° C 44% 1017 hPa 0 mm - 0 W/m² -
1788351533 9.44° C 40% 1016.9 hPa 0 mm - 0 W/m² -
1788351228 8.89° C 42% 1016.8 hPa 0 mm - 0 W/m² -
1788350923 9.44° C 41% 1017 hPa 0 mm - 0 W/m² -
1788350620 9.44° C 39% 1017 hPa 0 mm - 0 W/m² -
1788350314 9.44° C 38% 1016.9 hPa 0 mm - 0 W/m² -
1788350011 9.44° C 38% 1017.1 hPa 0 mm - 0 W/m² -
1788349707 9.44° C 38% 1017.3 hPa 0 mm - 0 W/m² -
1788349403 10° C 39% 1017 hPa 0 mm - 0 W/m² -
1788349102 9.44° C 39% 1016.9 hPa 0 mm - 0 W/m² -
1788348798 9.44° C 41% 1016.9 hPa 0 mm - 0 W/m² -
1788348497 9.44° C 40% 1017.1 hPa 0 mm - 0 W/m² -
1788348194 8.89° C 40% 1016.8 hPa 0 mm - 0 W/m² -
1788347889 8.89° C 41% 1017 hPa 0 mm - 0 W/m² -
1788347586 8.89° C 38% 1016.8 hPa 0 mm - 0 W/m² -
1788347281 9.44° C 37% 1017.1 hPa 0 mm - 0 W/m² -
1788346977 8.89° C 37% 1016.9 hPa 0 mm - 0 W/m² -
1788346676 9.44° C 37% 1016.7 hPa 0 mm - 0 W/m² -
1788346371 8.89° C 39% 1017 hPa 0 mm - 0 W/m² -
1788346067 9.44° C 36% 1017 hPa 0 mm - 0 W/m² -
1788345763 10° C 39% 1016.8 hPa 0 mm - 0 W/m² -
1788345462 10° C 35% 1016.8 hPa 0 mm - 0 W/m² -
1788345156 10.56° C 34% 1016.7 hPa 0 mm - 0 W/m² -
1788344852 10° C 34% 1016.9 hPa 0 mm - 0 W/m² -

* Rain latest hour (hover to see other rain measurements)
** Current wind speed in m/s (hover to see current wind gust speed)